Home   Weather   Cuxhaven   Past weeks

Flag for Germany Past Weather in Cuxhaven, Lower Saxony, Germany — Yesterday and Last 2 Weeks

Now
52 °F

Passing clouds.


Feels Like: 50 °F
Forecast: 51 / 59 °F
Wind: 6 mph from South

Location: Nordholz

Current Time: Oct 2, 2016 at 12:21:28 AM

Latest Report: Oct 1, 2016 at 11:20 PM


Visibility: N/A

Pressure: 29.74 "Hg

Humidity: 94%

Dew Point: 50 °F

Location of CuxhavenLocation

Past Weather in Cuxhaven — Graph

°F

Cuxhaven Temperature Yesterday

Maximum temperature yesterday: 63 °F (at 2:20 PM)
Minimum temperature yesterday: 48 °F (at 8:20 AM)
Average temperature yesterday: 55 °F

High & Low Weather Summary for the Past Weeks

 TemperatureHumidityPressure
High75 °F (Sep 25, 5:20 PM)100% (Sep 17, 5:20 AM)30.30 "Hg (Sep 17, 5:20 AM)
Low48 °F (Sep 27, 7:20 AM)43% (Sep 22, 4:20 PM)29.74 "Hg (Oct 1, 5:20 PM)
Average60 °F76%30.07 "Hg
* Reported Sep 16 10:20 PM — Oct 1 10:20 PM, Cuxhaven, Weather by CustomWeather, © 2016

Note: Actual official high and low records may vary slightly from our data, if they occured in-between our weather recording intervals... More about our weather records

Advertising

Cuxhaven Weather History for the Previous 24 Hours

Scroll right to see more
 ConditionsComfort  
Time TempWeatherWind HumidityBarometerVisibility
10:20 PM
Sat, Oct 1
54 °FPassing clouds.5 mph88%29.74 "HgN/A
9:20 PM54 °FPassing clouds.6 mph88%29.74 "HgN/A
8:20 PM55 °FPassing clouds.6 mph88%29.74 "HgN/A
7:20 PM57 °FPartly cloudy.5 mph77%29.74 "HgN/A
6:20 PM59 °FPartly sunny.2 mph72%29.74 "HgN/A
5:20 PM61 °FPartly sunny.5 mph63%29.74 "HgN/A
4:20 PM63 °FBroken clouds.3 mph59%29.77 "HgN/A
3:20 PM63 °FScattered clouds.6 mph59%29.77 "HgN/A
2:20 PM63 °FScattered clouds.8 mph59%29.80 "HgN/A
1:20 PM61 °FBroken clouds.6 mph68%29.80 "HgN/A
12:20 PM61 °FBroken clouds.7 mph63%29.83 "HgN/A
11:20 AM57 °FBroken clouds.7 mph77%29.83 "HgN/A
10:20 AM54 °FPartly sunny.8 mph82%29.83 "HgN/A
9:20 AM48 °FScattered clouds.6 mph87%29.83 "HgN/A
8:20 AM48 °FFog.7 mph87%29.83 "HgN/A
6:20 AM50 °FPassing clouds.6 mph82%29.83 "HgN/A
5:20 AM50 °FPartly cloudy.6 mph88%29.83 "HgN/A
4:20 AM50 °FPassing clouds.6 mph88%29.86 "HgN/A
3:20 AM50 °FPassing clouds.7 mph88%29.86 "HgN/A
2:20 AM52 °FPassing clouds.7 mph82%29.89 "HgN/A
1:20 AM52 °FPassing clouds.7 mph88%29.89 "HgN/A
12:20 AM52 °FPassing clouds.7 mph88%29.89 "HgN/A
Weather by CustomWeather, © 2016

See weather overviewHow to use our weather pages